Retour au catalogue

STARLINK-30958

ActifCommunicationsVLEO
NORAD 58457·PAYLOAD·🇺🇸 United States

Lancé Nov 28, 2023 depuis Cape Canaveral Space Force Station

Loading…

Prochains Passages (prochaines 24 heures)

TLE

FraisSource: CelesTrak SupGP

Époque: Sep 15, 2026, 02:29 UTC

1 58457C 23183W   26258.10395833 -.00022236  00000+0 -80524-3 0  2587
2 58457  43.0044  51.5715 0001609 268.3285 201.6546 15.27594800    16

Suivez STARLINK-30958 en temps réel avec AllMySat

Download on the App Store